This demonstration page uses our WeatherBlox Daily Observations layout. Learn more.

Left ArrowRight Arrow

Hourly Observations for October 24, 2021

Temp ( °F °C ) Dew Point ( °F °C ) Humidity (%) Winds ( mph kmh ) Pressure ( in mb ) Visibility ( mi km ) Precip ( " mm )
12:53 am 00:53 Cloudy 54 12.2 50 10 87 87 N N/A 30.04 1017 10 16 N/A
1:45 am 01:45 Cloudy 53 11.7 51 10.6 93 93 E 3 6 30.05 1018 10 16 N/A
1:53 am 01:53 Cloudy 53 11.7 51 10.6 93 93 N N/A 30.05 1018 10 16 N/A
2:30 am 02:30 Cloudy 53 11.7 51 10.6 93 93 ENE 3 6 30.05 1018 10 16 N/A
2:53 am 02:53 Cloudy 53 11.7 51 10.6 93 93 ENE 5 7 30.04 1017 10 16 0.00 0.00
3:09 am 03:09 Cloudy with Light Rain 53 11.7 51 10.6 93 93 N N/A 30.04 1017 10 16 0.00 0.00
3:37 am 03:37 Cloudy 53 11.7 51 10.6 93 93 N N/A 30.05 1018 10 16 0.00 0.00
3:53 am 03:53 Cloudy 54 12.2 51 10.6 90 90 N N/A 30.03 1017 10 16 0.00 0.00
4:15 am 04:15 Cloudy 54 12.2 52 11.1 93 93 N N/A 30.02 1017 10 16 N/A
4:53 am 04:53 Cloudy 54 12.2 52 11.1 93 93 N N/A 30.02 1017 10 16 N/A
5:38 am 05:38 Cloudy 54 12.2 52 11.1 93 93 E 3 6 30.02 1017 8 13 N/A
5:53 am 05:53 Cloudy 54 12.2 52 11.1 93 93 E 3 6 30.02 1017 7 11 N/A
6:43 am 06:43 Cloudy 54 12.2 53 11.7 97 97 ESE 3 6 30.03 1017 8 13 N/A
6:53 am 06:53 Cloudy 54 12.2 53 11.7 97 97 E 3 6 30.03 1017 8 13 N/A
7:53 am 07:53 Cloudy 54 12.2 53 11.7 97 97 N N/A 30.00 1016 7 11 N/A
8:07 am 08:07 Cloudy with Mist and Fog 54 12.2 53 11.7 97 97 ESE 5 7 29.99 1016 6 10 N/A
8:53 am 08:53 Mostly Cloudy 56 13.3 53 11.7 90 90 E 3 6 30.01 1016 8 13 N/A
9:53 am 09:53 Cloudy with Light Rain 56 13.3 53 11.7 90 90 N N/A 30.02 1017 9 14 0.00 0.00
10:53 am 10:53 Cloudy with Light Rain 56 13.3 54 12.2 93 93 VRB 5 7 30.01 1016 10 16 0.03 0.76
11:11 am 11:11 Cloudy with Light Rain 56 13.3 54 12.2 93 93 VRB 3 6 30.01 1016 9 14 0.01 0.25
11:39 am 11:39 Cloudy with Rain 56 13.3 54 12.2 93 93 N N/A 30.01 1016 3 4 0.05 1.27
11:53 am 11:53 Cloudy with Heavy Rain 56 13.3 54 12.2 93 93 ESE 5 7 29.99 1016 2 3 0.12 3.05
11:57 am 11:57 Cloudy with Rain 56 13.3 55 12.8 97 97 ESE 5 7 29.99 1016 3 4 0.00 0.00
12:06 pm 12:06 Cloudy with Light Rain 56 13.3 55 12.8 97 97 VRB 5 7 29.99 1016 4 6 0.02 0.51
12:26 pm 12:26 Cloudy with Light Rain 57 13.9 55 12.8 93 93 VRB 5 7 29.97 1015 4 6 0.04 1.02
12:32 pm 12:32 Cloudy with Heavy Rain 57 13.9 55 12.8 93 93 VRB 5 7 29.98 1015 2 3 0.09 2.29
12:38 pm 12:38 Cloudy with Heavy Rain 56 13.3 55 12.8 97 97 N N/A 29.98 1015 1 2 0.14 3.56
12:48 pm 12:48 Cloudy with Heavy Rain 55 13 55 13 100 100 SE 5 7 29.97 1015 2 2 0.21 5.33
12:53 pm 12:53 Cloudy with Light Rain 56 13.3 55 12.8 97 97 VRB 6 9 29.96 1015 2 3 0.21 5.33
1:02 pm 13:02 Cloudy 57 13.9 56 13.3 96 96 VRB 6 9 29.96 1015 9 14 0.00 0.00
1:51 pm 13:51 Cloudy with Light Rain 59 15 57 14 94 94 N N/A 29.93 1013 10 16 0.00 0.00
1:53 pm 13:53 Cloudy 58 14.4 57 13.9 97 97 VRB 3 6 29.93 1014 10 16 0.00 0.00
2:01 pm 14:01 Cloudy with Rain 58 14.4 57 13.9 97 97 VRB 6 9 29.94 1014 2 2 0.08 2.03
2:12 pm 14:12 Cloudy with Light Rain 58 14.4 57 13.9 97 97 VRB 3 6 29.93 1013 4 6 0.09 2.29
2:53 pm 14:53 Cloudy with Light Rain 61 16.1 59 15 93 93 N N/A 29.89 1012 7 11 0.12 3.05
3:03 pm 15:03 Cloudy 61 16.1 59 15 93 93 VRB 5 7 29.88 1012 10 16 0.00 0.00
3:53 pm 15:53 Cloudy 63 17.2 61 16.1 93 93 N N/A 29.88 1012 10 16 0.00 0.00
4:12 pm 16:12 Cloudy 64 17.8 61 16.1 90 90 E 3 6 29.87 1012 10 16 N/A
4:53 pm 16:53 Sunny 66 18.9 62 16.7 87 87 ESE 5 7 29.85 1011 10 16 N/A
5:53 pm 17:53 Mostly Cloudy 68 20 63 17.2 84 84 N N/A 29.83 1010 10 16 N/A
6:53 pm 18:53 Clear 64 17.8 63 17.2 96 96 N N/A 29.83 1010 8 13 N/A
7:53 pm 19:53 Clear 63 17.2 61 16.1 93 93 N N/A 29.81 1010 10 16 N/A
8:53 pm 20:53 Clear 68 20 62 16.7 81 81 VRB 3 6 29.80 1009 10 16 N/A
9:53 pm 21:53 Clear 69 20.6 61 16.1 76 76 SSW 8 13 29.80 1009 10 16 N/A
10:53 pm 22:53 Clear 69 20.6 59 15 70 70 S 9 15 29.80 1009 10 16 N/A
11:53 pm 23:53 Clear 68 20 57 13.9 68 68 SW 8 13 29.79 1009 10 16 N/A

Powered by AerisWeather